Starlink 34061

operational
NORAD ID: 63876 Int'l Des: 2025-094 Owner: SPXS Country: US Constellation: starlink
LEOCIRCULAR

Starlink 34061について

説明を読み込み中...

リアルタイム位置

3D地球を読み込み中...

次回通過

高度履歴

Altitude vs Time

uPlot chart will show altitude changes over time

軌道要素

1 63876U 25094N 26062.65079767 .00017669 00000-0 14829-2 0 9998
2 63876 69.9996 249.8779 0003076 267.0505 93.0303 14.98382337 46294
Epoch: Mar 3, 2026 • Age: 37 hours

現在のステータス

高度 576.2 km
速度 7.57 km/s
衛星直下点 -13.30°S, 70.54°E
打ち上げ日 May 10, 2025
運用期間 0.8 years
タイプ internet

技術仕様

分類 Payload
質量 575.00 kg
乾燥質量 530.00 kg
総質量 575.00 kg
長さ 0.30 m
直径 4.10 m
スパン 29.00 m
形状 Box + pan
製造者 SPXS
バスタイプ Starlink V2MO
フェーズステータス In Orbit
所有者/国 SPXS/US

大規模コンステレーション

Loading constellations...